Location: Presov
(49.0000°N, 21.2500°E)
Time: 06:26:37
(UTC+02:00)

Transit 2A Rocket - All Passes

Search period start: 14 April 2021 00:00
Search period end: 24 April 2021 00:00
Orbit: 594 x 908 km, 66.7° (Epoch: 13 April)

Date Brightness Start Highest point End Pass type
(mag) Time Alt. Az. Time Alt. Az. Time Alt. Az.
14 Apr - 00:44:01 10° NNW 00:47:56 31° NE 00:52:01 10° ESE visible
14 Apr - 02:26:22 10° NW 02:30:34 44° WSW 02:35:04 10° S visible
14 Apr - 17:04:48 10° SSW 17:09:11 50° ESE 17:13:24 10° NE daylight
14 Apr - 18:48:07 10° W 18:51:55 27° NW 18:55:38 10° NNE daylight
15 Apr - 00:01:40 10° NNW 00:05:04 21° NE 00:08:34 10° E visible
15 Apr - 01:43:37 10° NW 01:48:02 76° WSW 01:52:45 10° SSE visible
15 Apr - 03:29:02 10° W 03:29:52 10° WSW 03:30:42 10° WSW visible
15 Apr - 16:22:49 10° S 16:26:43 29° ESE 16:30:30 10° NE daylight
15 Apr - 18:04:52 10° WSW 18:09:07 41° NW 18:13:14 10° NNE daylight
15 Apr - 19:51:14 10° NW 19:52:49 12° NNW 19:54:23 10° N daylight
15 Apr - 23:19:25 10° N 23:22:04 16° NNE 23:24:48 10° ENE visible
16 Apr - 01:01:01 10° NNW 01:05:25 65° NE 01:10:06 10° SE visible
16 Apr - 02:44:25 10° WNW 02:47:33 19° WSW 02:50:49 10° SSW visible
16 Apr - 15:41:27 10° SSE 15:44:21 17° ESE 15:47:10 10° ENE daylight
16 Apr - 17:21:56 10° SW 17:26:24 68° NW 17:30:44 10° NNE daylight
16 Apr - 19:07:05 10° WNW 19:09:44 15° NNW 19:12:22 10° N daylight
16 Apr - 22:37:22 10° N 22:39:00 12° NNE 22:40:39 10° NE visible
17 Apr - 00:18:32 10° NNW 00:22:43 40° NE 00:27:06 10° ESE visible
17 Apr - 02:01:12 10° NW 02:05:09 31° WSW 02:09:20 10° S visible
17 Apr - 16:39:18 10° SSW 16:43:48 72° ESE 16:48:08 10° NE daylight
17 Apr - 18:23:21 10° W 18:26:45 21° NW 18:30:07 10° NNE daylight
17 Apr - 23:36:08 10° NNW 23:39:54 27° NE 23:43:51 10° E visible
18 Apr - 01:18:19 10° NW 01:22:40 53° WSW 01:27:18 10° SSE visible
18 Apr - 15:57:02 10° S 16:01:17 41° ESE 16:05:22 10° NE daylight
18 Apr - 17:39:55 10° WSW 17:43:52 31° NW 17:47:46 10° NNE daylight
18 Apr - 22:53:49 10° NNW 22:57:00 19° NE 23:00:17 10° E visible
19 Apr - 00:35:39 10° NW 00:40:06 90° NNW 00:44:52 10° SE visible
19 Apr - 02:19:54 10° W 02:22:02 13° WSW 02:24:14 10° SW visible
19 Apr - 15:15:15 10° SSE 15:18:50 24° ESE 15:22:20 10° ENE daylight
19 Apr - 16:56:47 10° SW 17:01:07 48° NW 17:05:20 10° NNE daylight
19 Apr - 18:42:41 10° NW 18:44:41 13° NNW 18:46:41 10° N daylight
19 Apr - 22:11:36 10° N 22:13:58 14° NNE 22:16:24 10° ENE visible
19 Apr - 23:53:05 10° NNW 23:57:27 55° NE 00:02:05 10° SE visible
20 Apr - 01:36:10 10° WNW 01:39:42 23° WSW 01:43:24 10° SSW visible
20 Apr - 14:34:15 10° SE 14:36:30 14° ESE 14:38:42 10° ENE daylight
20 Apr - 16:13:57 10° SW 16:18:26 81° NW 16:22:47 10° NE daylight
20 Apr - 17:58:43 10° WNW 18:01:38 17° NNW 18:04:33 10° N daylight
20 Apr - 21:29:43 10° N 21:30:52 11° NNE 21:32:02 10° NE visible
20 Apr - 23:10:38 10° NNW 23:14:42 35° NE 23:19:00 10° ESE visible
21 Apr - 00:53:06 10° NW 00:57:16 38° WSW 01:01:42 10° S visible
21 Apr - 15:31:27 10° SSW 15:35:51 58° ESE 15:40:07 10° NE daylight
21 Apr - 17:15:06 10° W 17:18:41 24° NW 17:22:15 10° NNE daylight
21 Apr - 22:28:15 10° NNW 22:31:52 24° NE 22:35:37 10° E visible
22 Apr - 00:10:19 10° NW 00:14:45 65° WSW 00:19:29 10° SSE visible
22 Apr - 14:49:21 10° S 14:53:22 33° ESE 14:57:17 10° NE daylight
22 Apr - 16:31:46 10° WSW 16:35:51 36° NW 16:39:52 10° NNE daylight
22 Apr - 18:18:33 10° NW 18:19:41 11° NNW 18:20:48 10° N daylight
22 Apr - 21:45:58 10° N 21:48:54 17° NNE 21:51:57 10° ENE visible
22 Apr - 23:27:41 10° NNW 23:32:09 76° NE 23:36:55 10° SE visible
23 Apr - 01:11:23 10° WNW 01:14:11 16° WSW 01:17:08 10° SSW visible
23 Apr - 14:07:46 10° SSE 14:10:59 19° ESE 14:14:06 10° ENE daylight
23 Apr - 15:48:44 10° SW 15:53:07 58° NW 15:57:23 10° NNE daylight
23 Apr - 17:34:12 10° WNW 17:36:34 14° NNW 17:38:55 10° N daylight
23 Apr - 21:03:49 10° N 21:05:51 13° NNE 21:07:57 10° NE visible
23 Apr - 22:45:10 10° NNW 22:49:28 47° NE 22:54:02 10° ESE visible
